timestamp,surface_pressure_avg,surface_temp_avg,battery_voltage,lat,long
2022-09-23 00:09:00+00:00,306.388,14.3,11.46,47.84626,-54.09684
2022-09-23 00:19:01+00:00,301.533,14.3,11.46,47.84626,-54.09684
2022-09-23 00:29:01+00:00,294.6047,14.3,11.46,47.84626,-54.09684
2022-09-23 00:39:01+00:00,290.8814,14.3,11.46,47.84626,-54.09684
2022-09-23 00:49:01+00:00,284.4697,14.3,11.46,47.84626,-54.09684
2022-09-23 00:59:01+00:00,277.0348,14.3,11.46,47.84626,-54.09684
2022-09-23 01:09:01+00:00,267.3097,14.3,11.46,47.84626,-54.09684
2022-09-23 01:19:00+00:00,260.208,14.3,11.46,47.84626,-54.09684
2022-09-23 01:29:00+00:00,256.5014,14.3,11.46,47.84626,-54.09684
2022-09-23 01:39:00+00:00,254.7898,14.3,11.46,47.84626,-54.09684
2022-09-23 01:49:00+00:00,251.1014,14.3,11.46,47.84626,-54.09684
2022-09-23 01:59:00+00:00,246.2964,14.3,11.46,47.84626,-54.09684
2022-09-23 02:09:00+00:00,242.0864,14.3,11.46,47.84626,-54.09684
2022-09-23 02:19:00+00:00,239.3714,14.3,11.46,47.84626,-54.09684
2022-09-23 02:29:00+00:00,236.9948,14.3,11.46,47.84626,-54.09684
2022-09-23 02:39:00+00:00,231.3014,14.3,11.46,47.84626,-54.09684
2022-09-23 02:49:00+00:00,226.0781,14.3,11.46,47.84626,-54.09684
2022-09-23 02:59:00+00:00,218.8514,14.3,11.46,47.84626,-54.09684
2022-09-23 03:09:00+00:00,211.2314,14.3,11.46,47.84626,-54.09684
2022-09-23 03:19:00+00:00,205.2498,14.3,11.37,47.84626,-54.09684
2022-09-23 03:29:00+00:00,203.1248,14.3,11.37,47.84626,-54.09684
2022-09-23 03:39:00+00:00,206.3682,14.3,11.37,47.84626,-54.09684
2022-09-23 03:49:00+00:00,212.3598,14.3,11.37,47.84626,-54.09684
2022-09-23 03:59:00+00:00,213.6114,14.3,11.37,47.84626,-54.09684
2022-09-23 04:09:00+00:00,212.1898,14.3,11.37,47.84626,-54.09684
2022-09-23 04:19:00+00:00,216.3581,14.3,11.37,47.84626,-54.09684
2022-09-23 04:29:00+00:00,215.9065,14.3,11.37,47.84626,-54.09684
2022-09-23 04:39:00+00:00,209.8948,14.3,11.37,47.84626,-54.09684
2022-09-23 04:49:00+00:00,211.6015,14.3,11.37,47.84626,-54.09684
2022-09-23 04:59:00+00:00,219.1414,14.3,11.37,47.84626,-54.09684
2022-09-23 05:09:00+00:00,220.7397,14.3,11.37,47.84626,-54.09684
2022-09-23 05:19:00+00:00,220.3681,14.3,11.37,47.84626,-54.09684
2022-09-23 05:29:00+00:00,226.2848,14.3,11.37,47.84626,-54.09684
2022-09-23 05:39:00+00:00,233.7964,14.3,11.37,47.84626,-54.09684
2022-09-23 05:49:00+00:00,237.2297,14.3,11.37,47.84626,-54.09684
2022-09-23 05:59:00+00:00,240.0764,14.3,11.37,47.84626,-54.09684
2022-09-23 06:09:00+00:00,242.9748,14.3,11.37,47.84626,-54.09684
2022-09-23 06:19:00+00:00,247.1081,14.3,11.37,47.84626,-54.09684
2022-09-23 06:29:00+00:00,250.6248,14.3,11.37,47.84626,-54.09684
2022-09-23 06:39:00+00:00,253.9281,14.3,11.37,47.84626,-54.09684
2022-09-23 06:49:00+00:00,257.4014,14.3,11.37,47.84626,-54.09684
2022-09-23 06:59:00+00:00,262.7914,14.3,11.37,47.84626,-54.09684
2022-09-23 07:09:00+00:00,264.8615,14.3,11.37,47.84626,-54.09684
2022-09-23 07:19:00+00:00,270.6764,14.3,11.37,47.84626,-54.09684
2022-09-23 07:29:00+00:00,278.1097,14.3,11.37,47.84626,-54.09684
2022-09-23 07:39:00+00:00,285.0264,14.3,11.37,47.84626,-54.09684
2022-09-23 07:49:00+00:00,287.1847,14.3,11.37,47.84626,-54.09684
2022-09-23 07:59:00+00:00,291.5264,14.3,11.37,47.84626,-54.09684
2022-09-23 08:09:00+00:00,297.4196,14.3,11.37,47.84626,-54.09684
2022-09-23 08:19:00+00:00,302.7531,14.3,11.37,47.84626,-54.09684
2022-09-23 08:29:00+00:00,305.223,14.3,11.37,47.84626,-54.09684
2022-09-23 08:39:00+00:00,310.583,14.3,11.37,47.84626,-54.09684
2022-09-23 08:49:00+00:00,313.4597,14.3,11.37,47.84626,-54.09684
2022-09-23 08:59:00+00:00,311.933,14.3,11.37,47.84626,-54.09684
2022-09-23 09:09:00+00:00,313.5147,14.3,11.37,47.84626,-54.09684
2022-09-23 09:19:00+00:00,318.938,14.3,11.37,47.84626,-54.09684
2022-09-23 09:29:00+00:00,319.6031,14.3,11.37,47.84626,-54.09684
2022-09-23 09:39:00+00:00,316.5346,14.3,11.37,47.84626,-54.09684
2022-09-23 09:49:00+00:00,321.353,14.3,11.37,47.84626,-54.09684
2022-09-23 09:59:00+00:00,329.6913,14.3,11.37,47.84626,-54.09684
2022-09-23 10:09:00+00:00,330.4446,14.3,11.37,47.84626,-54.09684
2022-09-23 10:19:00+00:00,328.3879,14.3,11.37,47.84626,-54.09684
2022-09-23 10:29:00+00:00,330.468,14.3,11.37,47.84626,-54.09684
2022-09-23 10:39:00+00:00,333.7847,14.3,11.37,47.84626,-54.09684
2022-09-23 10:49:00+00:00,330.048,14.3,11.37,47.84626,-54.09684
2022-09-23 10:59:00+00:00,326.8913,14.3,11.37,47.84626,-54.09684
2022-09-23 11:09:00+00:00,326.6413,14.3,11.37,47.84626,-54.09684
2022-09-23 11:19:00+00:00,327.2713,14.3,11.37,47.84626,-54.09684
2022-09-23 11:29:00+00:00,319.6813,14.3,11.37,47.84626,-54.09684
2022-09-23 11:39:00+00:00,315.3113,14.3,11.37,47.84626,-54.09684
2022-09-23 11:49:00+00:00,314.6547,14.3,11.37,47.84626,-54.09684
2022-09-23 11:59:00+00:00,313.4996,14.3,11.37,47.84626,-54.09684
2022-09-23 12:09:00+00:00,308.1964,14.3,11.37,47.84626,-54.09684
2022-09-23 12:19:00+00:00,304.1647,14.3,11.37,47.84626,-54.09684
2022-09-23 12:29:00+00:00,302.5613,14.3,11.37,47.84626,-54.09684
2022-09-23 12:39:00+00:00,300.1047,14.3,11.37,47.84626,-54.09684
2022-09-23 12:49:00+00:00,292.6213,14.3,11.37,47.84626,-54.09684
2022-09-23 12:59:00+00:00,284.658,14.3,11.37,47.84626,-54.09684
2022-09-23 13:09:00+00:00,280.7764,14.3,11.37,47.84626,-54.09684
2022-09-23 13:19:00+00:00,273.1081,14.3,11.37,47.84626,-54.09684
2022-09-23 13:29:00+00:00,263.7681,14.3,11.37,47.84626,-54.09684
2022-09-23 13:39:00+00:00,260.0948,14.3,11.37,47.84626,-54.09684
2022-09-23 13:49:00+00:00,258.0497,14.3,11.37,47.84626,-54.09684
2022-09-23 13:59:00+00:00,250.2414,14.3,11.37,47.84626,-54.09684
2022-09-23 14:09:00+00:00,244.1998,14.3,11.37,47.84626,-54.09684
2022-09-23 14:19:00+00:00,239.3048,14.32,11.46,47.84626,-54.09684
2022-09-23 14:29:00+00:00,233.3765,14.33,11.46,47.84626,-54.09684
2022-09-23 14:39:00+00:00,230.1314,14.32,11.46,47.84626,-54.09684
2022-09-23 14:49:00+00:00,226.8781,14.33,11.46,47.84626,-54.09684
2022-09-23 14:59:00+00:00,218.3714,14.35,11.46,47.84626,-54.09684
2022-09-23 15:09:00+00:00,212.5581,14.37,11.46,47.84626,-54.09684
2022-09-23 15:19:00+00:00,213.5381,14.37,11.46,47.84626,-54.09684
2022-09-23 15:29:00+00:00,212.4948,14.38,11.46,47.84626,-54.09684
2022-09-23 15:39:00+00:00,213.9431,14.39,11.46,47.84626,-54.09684
2022-09-23 15:49:00+00:00,222.5098,14.39,11.46,47.84626,-54.09684
2022-09-23 15:59:00+00:00,224.5948,14.39,11.46,47.84626,-54.09684
2022-09-23 16:09:00+00:00,216.9547,14.39,11.46,47.84626,-54.09684
2022-09-23 16:19:00+00:00,214.3764,14.4,11.46,47.84626,-54.09684
2022-09-23 16:29:00+00:00,221.0131,14.4,11.46,47.84626,-54.09684
2022-09-23 16:39:00+00:00,222.5698,14.4,11.46,47.84626,-54.09684
2022-09-23 16:49:00+00:00,218.8348,14.4,11.46,47.84626,-54.09684
2022-09-23 16:59:00+00:00,221.4581,14.4,11.46,47.84626,-54.09684
2022-09-23 17:09:00+00:00,223.6881,14.4,11.46,47.84626,-54.09684
2022-09-23 17:19:00+00:00,220.6931,14.44,11.53,47.84626,-54.09684
2022-09-23 17:29:00+00:00,222.8598,14.48,11.53,47.84626,-54.09684
2022-09-23 17:39:00+00:00,232.4098,14.49,11.53,47.84626,-54.09684
2022-09-23 17:49:00+00:00,239.1798,14.5,11.53,47.84626,-54.09684
2022-09-23 17:59:00+00:00,242.0081,14.5,11.53,47.84626,-54.09684
2022-09-23 18:09:00+00:00,252.1981,14.5,11.53,47.84626,-54.09684
2022-09-23 18:19:00+00:00,261.8664,14.5,11.53,47.84626,-54.09684
2022-09-23 18:29:00+00:00,260.1431,14.5,11.53,47.84626,-54.09684
2022-09-23 18:39:00+00:00,255.4281,14.5,11.53,47.84626,-54.09684
2022-09-23 18:49:00+00:00,260.1981,14.5,11.53,47.84626,-54.09684
2022-09-23 18:59:00+00:00,264.9481,14.5,11.53,47.84626,-54.09684
2022-09-23 19:09:00+00:00,264.4981,14.5,11.53,47.84626,-54.09684
2022-09-23 19:19:00+00:00,268.968,14.5,11.46,47.84626,-54.09684
2022-09-23 19:29:00+00:00,282.1913,14.5,11.46,47.84626,-54.09684
2022-09-23 19:39:00+00:00,290.2397,14.5,11.46,47.84626,-54.09684
2022-09-23 19:49:00+00:00,289.0464,14.5,11.46,47.84626,-54.09684
2022-09-23 19:59:00+00:00,293.3364,14.5,11.46,47.84626,-54.09684
2022-09-23 20:09:00+00:00,301.343,14.5,11.46,47.84626,-54.09684
2022-09-23 20:19:00+00:00,306.508,14.5,11.46,47.84626,-54.09684
2022-09-23 20:29:00+00:00,310.513,14.48,11.46,47.84626,-54.09684
2022-09-23 20:39:00+00:00,320.3447,14.45,11.46,47.84626,-54.09684
2022-09-23 20:49:00+00:00,326.83799999999997,14.45,11.46,47.84626,-54.09684
2022-09-23 20:59:00+00:00,325.283,14.44,11.46,47.84626,-54.09684
2022-09-23 21:09:00+00:00,326.6613,14.44,11.46,47.84626,-54.09684
2022-09-23 21:19:00+00:00,339.6913,14.44,11.46,47.84626,-54.09684
2022-09-23 21:29:00+00:00,350.1629,14.44,11.46,47.84626,-54.09684
2022-09-23 21:39:00+00:00,357.348,14.45,11.46,47.84626,-54.09684
2022-09-23 21:49:00+00:00,363.3279,14.44,11.46,47.84626,-54.09684
2022-09-23 21:59:00+00:00,366.8646,14.44,11.46,47.84626,-54.09684
2022-09-23 22:09:00+00:00,362.4213,14.46,11.46,47.84626,-54.09684
2022-09-23 22:19:00+00:00,354.4696,14.48,11.37,47.84626,-54.09684
2022-09-23 22:29:00+00:00,349.9546,14.49,11.37,47.84626,-54.09684
2022-09-23 22:39:00+00:00,352.108,14.5,11.37,47.84626,-54.09684
2022-09-23 22:49:00+00:00,355.5596,14.5,11.37,47.84626,-54.09684
2022-09-23 22:59:00+00:00,359.5062,14.5,11.37,47.84626,-54.09684
2022-09-23 23:09:00+00:00,362.6246,14.5,11.37,47.84626,-54.09684
2022-09-23 23:19:00+00:00,363.6597,14.5,11.37,47.84626,-54.09684
2022-09-23 23:29:00+00:00,360.2129,14.49,11.37,47.84626,-54.09684
2022-09-23 23:39:00+00:00,360.05300000000005,14.49,11.37,47.84626,-54.09684
2022-09-23 23:49:00+00:00,360.663,14.49,11.37,47.84626,-54.09684
2022-09-23 23:59:00+00:00,348.1996,14.49,11.37,47.84626,-54.09684
